GRARBER Weather Reports


time (UTC)temp
C
wind
direction
speed
KPH
gust
KPH
rain 1hr
cm
rain 24hr
cm
rain mn
cm
humidity
%
barometer
mb
20260505121655 16 120 4.8 0.0 0.00 0.00 0.00 44
20260505111655 17 340 4.8 16.1 0.00 0.00 0.00 39
20260505101655 17 330 9.7 20.9 0.00 0.00 0.00 39
20260505091655 16 340 11.3 0.0 0.00 0.00 0.00 41
20260505081656 15 330 8.0 0.0 0.00 0.00 0.00 47
20260505071654 13 320 3.2 0.0 0.00 0.00 0.00 54
20260505061656 12 330 4.8 0.0 0.00 0.00 0.00 54
20260505051655 12 310 3.2 0.0 0.00 0.00 0.00 54
20260505041655 11 210 20.9 0.0 0.00 0.00 0.00 57
20260505031655 12 190 12.9 0.0 0.00 0.00 0.00 54
20260505021655 11 140 11.3 0.0 0.00 0.00 0.00 57
20260505011656 11 230 14.5 0.0 0.00 0.00 0.00 57
20260505001655 12 150 19.3 0.0 0.00 0.00 0.00 54
20260504231655 12 150 20.9 0.0 0.00 0.00 0.00 50
20260504221655 12 130 14.5 0.0 0.00 0.00 0.00 50
20260504211654 12 80 16.1 0.0 0.00 0.00 0.00 62
20260504201654 12 70 11.3 0.0 0.00 0.00 0.00 58
20260504191655 12 50 11.3 0.0 0.00 0.00 0.00 58
20260504181655 12 30 9.7 0.0 0.00 0.00 0.00 58
20260504171656 13 20 14.5 0.0 0.00 0.00 0.00 50